Location: *
(43.7000°S, 168.7000°W)
Time: 14:31:30
(UTC+00:00)

Cosmos 1939 Rocket - Pass Details

Date: 07 July 2020
Orbit: 532 x 584 km, 97.4° (Epoch: 03 August)

Event Time Altitude Azimuth Distance (km) Brightness Sun altitude
Rises 17:46:18 0° 7° (N) 2,713 6.8 -10.8°
Reaches altitude 10° 17:48:24 10° 4° (N) 1,836 5.8 -10.4°
Maximum altitude 17:52:21 67° 282° (WNW) 616 2.9 -9.8°
Drops below altitude 10° 17:56:27 10° 197° (SSW) 1,896 5.2 -9.1°
Sets 17:58:39 0° 194° (SSW) 2,811 6.1 -8.7°
